KUIPER-00085

Last updated on Sat Aug 16 2025 00:02:06 GMT+0000 (Coordinated Universal Time)

1 64831U 25151R 25227.45839420 .00030001 00000+0 84337-3 0 9990 2 64831 51.8769 141.9692 0005531 242.4861 117.5564 15.36245424 4631
UTC large
Height (km)
Speed (km/s)
/
Latitude / Longitude
Inclination (degrees)
Orbital Period (minutes)
Azimuth
Elevation
Range (km)
Doppler Factor

Next 0 passes for location: London (51.5072 / 0.1276)

Sorry there are no passes over London.